Weather History for Aberdeen / Amory, MS

Change the Weather History Date:

Thursday, January 17, 2013

  Actual Average (KCBM) Record (KCBM)
Temperature  
Mean Temperature 40 °F -  
Max Temperature 48 °F 51 °F 66 °F (1999)
Min Temperature 33 °F 32 °F 15 °F (1997)
Degree Days  
Heating Degree Days 24    
Moisture  
Dew Point 30 °F    
Average Humidity 73    
Maximum Humidity 87    
Minimum Humidity 56    
Precipitation  
Precipitation 0.14 in - - ()
Sea Level Pressure  
Sea Level Pressure 30.20 in    
Wind  
Wind Speed 11 mph (NNW)    
Max Wind Speed 18 mph    
Max Gust Speed 29 mph    
Visibility 6 miles    
Events Rain , Snow    
Averages and records for this station are not official NWS values.
T = Trace of Precipitation, MM = Missing Value Source: NWS Daily Summary

Daily Weather History Graph

Daily Weather History Graph

Search for Another Location

Airport:

Trip Planner

Search our weather history database for the weather conditions in past years. The results will help you decide how hot, cold, wet, or windy it might be!

Date:

Astronomy

Jan. 17, 2013 Rise Set
Actual Time 6:58 AM CST 5:10 PM CST
Civil Twilight 6:31 AM CST 5:37 PM CST
Nautical Twilight 6:00 AM CST 6:07 PM CST
Astronomical Twilight 5:30 AM CST 6:37 PM CST
Moon 10:25 AM CST (1/17) 11:39 PM CST (1/17)
Length of Visible Light 11h 06m
Length of Day
10h 12m
Waxing Crescent, 38% of the Moon is Illuminated
Jan 17
Waxing Crescent
Jan 18
First Quarter
Jan 26
Full
Feb 3
Last Quarter
Feb 10
New

Hourly Weather History & Observations

Time (CST) Temp. Windchill Dew Point Humidity Pressure Visibility Wind Dir Wind Speed Gust Speed Precip Events Conditions
12:15 AM 35.6 °F 26.6 °F 26.6 °F 70% 30.07 in 1.8 mi North 13.8 mph 17.3 mph N/A Rain Light Rain
12:35 AM 35.6 °F 28.0 °F 26.6 °F 70% 30.07 in 2.5 mi North 10.4 mph - 0.01 in   Light Drizzle
12:55 AM 35.6 °F 29.2 °F 26.6 °F 70% 30.08 in 2.5 mi North 8.1 mph - 0.01 in Rain Light Rain
1:15 AM 35.6 °F 28.6 °F 26.6 °F 70% 30.07 in 2.0 mi NNW 9.2 mph - N/A Rain Light Rain
1:35 AM 35.6 °F 28.0 °F 26.6 °F 70% 30.06 in 2.0 mi North 10.4 mph - N/A Rain Light Rain
1:55 AM 35.6 °F 28.0 °F 26.6 °F 70% 30.06 in 3.0 mi North 10.4 mph - N/A   Light Drizzle
2:15 AM 35.6 °F 28.6 °F 26.6 °F 70% 30.06 in 2.0 mi NNW 9.2 mph - 0.01 in Rain Light Rain
2:55 AM 35.6 °F 27.1 °F 26.6 °F 70% 30.06 in 3.0 mi NNW 12.7 mph - 0.02 in Rain Light Rain
3:15 AM 35.6 °F 27.1 °F 26.6 °F 70% 30.06 in 2.5 mi NNW 12.7 mph 17.3 mph 0.01 in   Overcast
3:35 AM 33.8 °F 24.8 °F 24.8 °F 70% 30.07 in 4.0 mi NNW 12.7 mph 18.4 mph 0.02 in Rain Light Rain
3:55 AM 33.8 °F 25.8 °F 23.0 °F 65% 30.07 in 3.0 mi NW 10.4 mph - 0.04 in Rain Light Rain
4:15 AM 33.8 °F 27.0 °F 23.0 °F 65% 30.07 in 3.0 mi NW 8.1 mph - 0.01 in Rain Light Rain
4:35 AM 33.8 °F 26.4 °F 23.0 °F 65% 30.08 in 5.0 mi WNW 9.2 mph - 0.03 in Rain Light Rain
4:55 AM 33.8 °F 25.8 °F 23.0 °F 65% 30.09 in 4.0 mi NW 10.4 mph - 0.03 in Rain Light Rain
5:15 AM 33.8 °F 27.0 °F 23.0 °F 65% 30.09 in 5.0 mi NNW 8.1 mph 16.1 mph N/A   Haze
5:35 AM 33.8 °F 23.9 °F 21.2 °F 60% 30.09 in 4.0 mi NNW 15.0 mph 18.4 mph N/A   Mostly Cloudy
5:55 AM 33.8 °F 24.3 °F 21.2 °F 60% 30.10 in 9.0 mi NNW 13.8 mph 24.2 mph N/A   Scattered Clouds
6:15 AM 33.8 °F 23.9 °F 21.2 °F 60% 30.10 in 8.0 mi NNW 15.0 mph 19.6 mph N/A Rain Light Rain
6:35 AM 35.6 °F 25.9 °F 21.2 °F 56% 30.11 in 4.0 mi North 16.1 mph 27.6 mph N/A Snow Light Snow
6:55 AM 33.8 °F 22.8 °F 21.2 °F 60% 30.13 in 1.2 mi North 18.4 mph 28.8 mph 0.02 in   Overcast
7:15 AM 33.8 °F 23.9 °F 28.4 °F 81% 30.14 in 2.5 mi NNW 15.0 mph 19.6 mph N/A Snow Light Snow
7:35 AM 33.8 °F 24.3 °F 28.4 °F 81% 30.14 in 2.0 mi NNW 13.8 mph 20.7 mph 0.01 in Rain Light Rain
7:55 AM 33.8 °F 25.3 °F 28.4 °F 81% 30.14 in 8.0 mi NNW 11.5 mph - 0.01 in   Scattered Clouds
8:15 AM 33.8 °F 24.3 °F 28.4 °F 81% 30.14 in 8.0 mi NNW 13.8 mph 21.9 mph N/A   Mostly Cloudy
8:35 AM 33.8 °F 25.8 °F 28.4 °F 81% 30.15 in 8.0 mi NNW 10.4 mph 20.7 mph N/A   Overcast
9:15 AM 35.6 °F 26.2 °F 30.2 °F 81% 30.15 in 9.0 mi NNW 15.0 mph 20.7 mph N/A   Partly Cloudy
9:55 AM 33.8 °F 24.3 °F 30.2 °F 87% 30.16 in 7.0 mi NNW 13.8 mph 21.9 mph N/A Rain Light Rain
10:15 AM 35.6 °F 25.5 °F 30.2 °F 81% 30.16 in 5.0 mi NNW 17.3 mph 25.3 mph N/A   Haze
10:35 AM 35.6 °F 26.2 °F 30.2 °F 81% 30.15 in 3.0 mi NNW 15.0 mph 23.0 mph N/A Rain Light Rain
10:55 AM 35.6 °F 26.6 °F 30.2 °F 81% 30.16 in 2.0 mi NNW 13.8 mph 20.7 mph 0.01 in Snow Light Snow
11:15 AM 35.6 °F 28.6 °F 32.0 °F 87% 30.16 in 6.0 mi NNW 9.2 mph - N/A   Haze
11:35 AM 35.6 °F 28.6 °F 32.0 °F 87% 30.17 in 8.0 mi NW 9.2 mph - N/A   Scattered Clouds
11:55 AM 37.4 °F 30.3 °F 32.0 °F 81% 30.17 in 8.0 mi NW 10.4 mph - N/A   Mostly Cloudy
12:15 PM 37.4 °F 29.8 °F 32.0 °F 81% 30.17 in 7.0 mi WNW 11.5 mph - N/A   Mostly Cloudy
12:35 PM 39.2 °F 32.5 °F 32.0 °F 75% 30.16 in 8.0 mi NNW 10.4 mph - N/A   Mostly Cloudy
12:55 PM 39.2 °F 33.6 °F 32.0 °F 75% 30.17 in 8.0 mi NW 8.1 mph 17.3 mph N/A   Overcast
1:15 PM 39.2 °F 33.0 °F 32.0 °F 75% 30.16 in 8.0 mi NW 9.2 mph - N/A   Overcast
1:35 PM 42.8 °F 36.6 °F 33.8 °F 70% 30.17 in 8.0 mi NNW 11.5 mph 16.1 mph N/A   Overcast
1:55 PM 44.6 °F 39.7 °F 35.6 °F 71% 30.17 in 7.0 mi NW 9.2 mph 16.1 mph N/A   Scattered Clouds
2:15 PM 46.4 °F 40.7 °F 37.4 °F 71% 30.17 in 8.0 mi North 12.7 mph - N/A   Clear
2:35 PM 48.2 °F - 37.4 °F 66% 30.18 in 8.0 mi NNW 11.5 mph 18.4 mph N/A   Clear
2:55 PM 48.2 °F - 37.4 °F 66% 30.20 in 9.0 mi NNW 12.7 mph 21.9 mph N/A   Partly Cloudy
3:15 PM 48.2 °F - 37.4 °F 66% 30.22 in 10.0 mi NNW 12.7 mph 19.6 mph N/A   Partly Cloudy
3:35 PM 48.2 °F - 37.4 °F 66% 30.23 in 8.0 mi NNW 18.4 mph 25.3 mph N/A   Clear
3:55 PM 48.2 °F - 35.6 °F 62% 30.25 in 9.0 mi NNW 18.4 mph 21.9 mph N/A   Partly Cloudy
4:15 PM 46.4 °F 40.7 °F 35.6 °F 66% 30.27 in 9.0 mi NNW 12.7 mph 24.2 mph N/A   Partly Cloudy
4:35 PM 46.4 °F 41.1 °F 35.6 °F 66% 30.28 in 9.0 mi NNW 11.5 mph 18.4 mph N/A   Partly Cloudy
4:55 PM 44.6 °F 40.2 °F 33.8 °F 66% 30.29 in 9.0 mi NNW 8.1 mph - N/A   Partly Cloudy
5:15 PM 42.8 °F 39.3 °F 33.8 °F 70% 30.30 in 10.0 mi NNW 5.8 mph - N/A   Clear
5:35 PM 41.0 °F 38.0 °F 32.0 °F 70% 30.32 in 10.0 mi NNW 4.6 mph - N/A   Clear
5:55 PM 42.8 °F 38.6 °F 33.8 °F 70% 30.33 in 10.0 mi NNW 6.9 mph - N/A   Clear
6:15 PM 42.8 °F 38.6 °F 33.8 °F 70% 30.34 in 10.0 mi NNW 6.9 mph - N/A   Clear
6:55 PM 39.2 °F 34.2 °F 32.0 °F 75% 30.36 in 10.0 mi NW 6.9 mph - N/A   Clear
7:15 PM 41.0 °F 34.7 °F 33.8 °F 76% 30.37 in 10.0 mi NNW 10.4 mph - N/A   Clear
7:35 PM 41.0 °F 36.4 °F 32.0 °F 70% 30.38 in 10.0 mi NNW 6.9 mph - N/A   Clear
7:55 PM 39.2 °F 34.2 °F 32.0 °F 75% 30.39 in 10.0 mi NNW 6.9 mph - N/A   Clear
8:15 PM 39.2 °F 34.2 °F 32.0 °F 75% 30.40 in 9.0 mi NNW 6.9 mph - N/A   Clear
8:35 PM 39.2 °F 33.6 °F 32.0 °F 75% 30.40 in 10.0 mi NNW 8.1 mph - N/A   Clear
8:55 PM 39.2 °F 33.6 °F 32.0 °F 75% 30.41 in 8.0 mi North 8.1 mph - N/A   Clear
9:15 PM 37.4 °F 30.8 °F 32.0 °F 81% 30.41 in 8.0 mi North 9.2 mph - N/A   Clear
9:35 PM 37.4 °F 30.3 °F 32.0 °F 81% 30.42 in 8.0 mi North 10.4 mph - N/A   Clear
9:55 PM 37.4 °F 32.1 °F 32.0 °F 81% 30.43 in 7.0 mi North 6.9 mph - N/A   Clear
11:15 PM 35.6 °F 29.2 °F 30.2 °F 81% 30.45 in 7.0 mi NNW 8.1 mph - N/A   Clear
11:55 PM 33.8 °F 28.6 °F 30.2 °F 87% 30.46 in 6.0 mi North 5.8 mph - N/A   Haze